Find Starlink 35521

NORAD ID: 65916 Int'l Des: 2025-225 Owner: SPXS Country: US Constellation: starlink operational
LEOCIRCULAR

当前视图

正在加载3D地球...

About Starlink 35521

Starlink 35521 (NORAD 65916) is a starlink constellation satellite (v2 mini) launched Oct 8, 2025 by SPXS of US. It operates in LEO, CIRCULAR orbit with a mass of 575.00 kg.

即将过境

Passes for default location (London). Set your location on the main map for personalized predictions.

高度历史

Loading altitude history...

两行轨道根数

1 65916U 25225G 26265.45115539 .00026158 00000-0 78241-3 0 9994
2 65916 53.1615 328.8767 0001720 144.7974 215.3143 15.34408073 54572
Epoch: Sep 22, 2026 • Age: 16 hours

当前状态

高度 468.5 km
远地点 / 近地点 N/A
速度 7.64 km/s
星下点 53.30°N, 9.11°E
发射日期 Oct 8, 2025
运行时间 0.9 years
类型 internet

技术详情

分类 Payload
质量 575.00 kg
干质量 530.00 kg
长度 0.30 m
跨度 29.00 m
形状 ? Box + pan
制造商 SPXS
平台类型 Starlink V2MO
阶段状态 In Orbit
所有者/国家 SPXS/US

Most Searched